C/2013 PE67 ( Catalina-Spacewatch )

Japanese version
Home page
Updated on May 7, 2015

---------------------------------------------------------------------

* Profile

Discovery Date August 9, 2013
Magnitude 19.5 mag, 19.3 mag
Discoverer E. J. Christensen and J. A. Johnson (Catalina Sky Survey ), J. V. Scotti (Spacewatch II, Kitt Peak)

* Pictures

* Orbital Elements

Epoch 2013 Dec. 14.0 TT = JDT 2456640.5
T 2013 Dec.  9.30114 TT                                 MPC
q   1.8470731            (2000.0)            P               Q
z  +0.0179768      Peri.   59.48414     +0.20397094     -0.84167024
 +/-0.0000000      Node   325.96144     -0.86134166     +0.08844210
e   0.9667955      Incl.  116.71780     +0.46528098     +0.53269992
From 153 observations 2013 Aug. 3-2014 June 3, mean residual 0".5.

* Magnitudes Graph

        m1 = 14.0 + 5 log d + 10.0 log r

---------------------------------------------------------------------

The orbital elements are published on M.P.E.C. 2014-L52.
The magnitudes graphs are made with Comet for Windows.

---------------------------------------------------------------------

Copyright(C) Seiichi Yoshida (comet@aerith.net). All rights reserved.